| time (UTC) | temp F | wind direction | speed knots | gust knots | rain 1hr in | rain 24hr in | rain mn in | humidity % | barometer mb |
| 20260505200048 | 54 | 281 | 4.3 | 14.8 | 0.01 | 0.01 | 0.01 | 72 | 1004.8 |
| 20260505194542 | 57 | 360 | 5.2 | 13.9 | 0.00 | 0.00 | 0.00 | 66 | 1004.1 |
| 20260505193040 | 60 | 311 | 5.2 | 20.0 | 0.00 | 0.00 | 0.00 | 62 | 1004.0 |
| 20260505191541 | 62 | 274 | 6.1 | 17.4 | 0.00 | 0.00 | 0.00 | 56 | 1003.7 |
| 20260505190009 | 63 | 360 | 7.8 | 15.6 | 0.00 | 0.00 | 0.00 | 55 | 1003.4 |
| 20260505184507 | 63 | 360 | 7.8 | 15.6 | 0.00 | 0.00 | 0.00 | 55 | 1003.4 |
| 20260505183003 | 63 | 360 | 9.6 | 16.5 | 0.00 | 0.00 | 0.00 | 58 | 1003.4 |
| 20260505181503 | 63 | 360 | 7.8 | 18.2 | 0.00 | 0.00 | 0.00 | 58 | 1003.3 |
| 20260505180107 | 63 | 360 | 10.4 | 19.1 | 0.00 | 0.00 | 0.00 | 58 | 1003.0 |
| 20260505174610 | 63 | 257 | 7.0 | 19.1 | 0.00 | 0.00 | 0.00 | 61 | 1002.6 |
| 20260505173054 | 64 | 360 | 8.7 | 19.1 | 0.00 | 0.00 | 0.00 | 60 | 1002.6 |
| 20260505171553 | 64 | 273 | 10.4 | 16.5 | 0.00 | 0.00 | 0.00 | 61 | 1002.3 |
| 20260505170051 | 65 | 261 | 7.0 | 14.8 | 0.00 | 0.00 | 0.00 | 62 | 1002.3 |
| 20260505164552 | 65 | 360 | 11.3 | 18.2 | 0.00 | 0.00 | 0.00 | 63 | 1002.3 |
| 20260505163018 | 63 | 311 | 7.8 | 16.5 | 0.00 | 0.00 | 0.00 | 67 | 1002.2 |
| 20260505161517 | 63 | 360 | 7.8 | 17.4 | 0.00 | 0.00 | 0.00 | 68 | 1002.3 |
| 20260505153011 | 64 | 360 | 7.0 | 18.2 | 0.00 | 0.00 | 0.00 | 70 | 1001.0 |
| 20260505151511 | 65 | 360 | 10.4 | 20.0 | 0.00 | 0.00 | 0.00 | 69 | 1001.1 |
| 20260505124530 | 61 | 360 | 11.3 | 18.2 | 0.00 | 0.00 | 0.00 | 73 | 998.8 |
| 20260505123033 | 61 | 360 | 8.7 | 15.6 | 0.00 | 0.00 | 0.00 | 73 | 998.9 |
| 20260505121523 | 61 | 192 | 8.7 | 16.5 | 0.00 | 0.00 | 0.00 | 73 | 998.7 |
| 20260505120023 | 61 | 200 | 7.8 | 15.6 | 0.00 | 0.00 | 0.00 | 73 | 998.7 |
| 20260505114513 | 61 | 194 | 7.8 | 17.4 | 0.00 | 0.00 | 0.00 | 73 | 998.6 |
| 20260505113010 | 60 | 189 | 7.0 | 15.6 | 0.00 | 0.00 | 0.00 | 73 | 998.3 |
| 20260505111516 | 60 | 360 | 7.8 | 15.6 | 0.00 | 0.00 | 0.00 | 74 | 998.2 |
| 20260505101606 | 58 | 360 | 7.8 | 13.0 | 0.00 | 0.00 | 0.00 | 80 | 997.9 |
| 20260505100100 | 58 | 199 | 7.0 | 13.0 | 0.00 | 0.00 | 0.00 | 80 | 997.3 |
| 20260505094546 | 58 | 195 | 7.0 | 13.0 | 0.00 | 0.00 | 0.00 | 80 | 997.4 |
| 20260505093046 | 57 | 360 | 7.8 | 13.0 | 0.00 | 0.00 | 0.00 | 80 | 997.4 |
| 20260505091542 | 57 | 182 | 7.0 | 14.8 | 0.00 | 0.00 | 0.00 | 80 | 997.3 |
| 20260505090010 | 57 | 200 | 6.1 | 14.8 | 0.00 | 0.00 | 0.00 | 80 | 997.2 |
| 20260505084507 | 57 | 169 | 7.0 | 14.8 | 0.00 | 0.00 | 0.00 | 80 | 997.0 |
| 20260505083110 | 57 | 153 | 6.1 | 11.3 | 0.00 | 0.00 | 0.00 | 79 | 996.9 |
| 20260505081535 | 58 | 165 | 6.1 | 12.2 | 0.00 | 0.00 | 0.00 | 78 | 997.3 |
| 20260505080044 | 59 | 192 | 5.2 | 10.4 | 0.00 | 0.00 | 0.00 | 78 | 997.6 |
| 20260505080037 | 59 | 196 | 5.2 | 10.4 | 0.00 | 0.00 | 0.00 | 78 | 997.6 |
| 20260505074529 | 60 | 198 | 8.7 | 17.4 | 0.00 | 0.00 | 0.00 | 76 | 997.7 |
| 20260505073036 | 60 | 360 | 7.8 | 15.6 | 0.00 | 0.00 | 0.00 | 77 | 997.4 |
| 20260505071528 | 60 | 166 | 8.7 | 16.5 | 0.00 | 0.00 | 0.00 | 76 | 997.5 |
| 20260505070028 | 61 | 148 | 7.8 | 16.5 | 0.00 | 0.00 | 0.00 | 76 | 997.4 |
| 20260505064523 | 61 | 190 | 7.0 | 14.8 | 0.00 | 0.00 | 0.00 | 75 | 997.6 |
| 20260505063020 | 61 | 198 | 6.1 | 12.2 | 0.00 | 0.00 | 0.00 | 76 | 997.8 |
| 20260505061524 | 61 | 192 | 7.0 | 14.8 | 0.00 | 0.00 | 0.00 | 76 | 998.0 |
| 20260505060015 | 60 | 196 | 8.7 | 14.8 | 0.00 | 0.00 | 0.00 | 77 | 998.2 |
| 20260505054515 | 60 | 360 | 8.7 | 16.5 | 0.00 | 0.00 | 0.00 | 76 | 998.3 |
| 20260505053027 | 60 | 360 | 9.6 | 22.6 | 0.00 | 0.00 | 0.00 | 75 | 998.5 |
| 20260505051528 | 59 | 360 | 7.8 | 16.5 | 0.00 | 0.00 | 0.00 | 77 | 998.4 |
| 20260505041509 | 61 | 360 | 7.0 | 16.5 | 0.00 | 0.00 | 0.00 | 73 | 998.6 |
| 20260505040006 | 61 | 192 | 7.8 | 17.4 | 0.00 | 0.00 | 0.00 | 75 | 998.6 |
| 20260505034504 | 61 | 192 | 9.6 | 16.5 | 0.00 | 0.00 | 0.00 | 74 | 998.5 |
| 20260505033005 | 61 | 175 | 7.0 | 15.6 | 0.00 | 0.00 | 0.00 | 73 | 998.6 |
| 20260505031600 | 61 | 200 | 8.7 | 14.8 | 0.00 | 0.00 | 0.00 | 73 | 999.1 |
| 20260505024559 | 61 | 186 | 6.1 | 11.3 | 0.00 | 0.00 | 0.00 | 72 | 999.0 |
| 20260505023104 | 61 | 172 | 8.7 | 16.5 | 0.00 | 0.00 | 0.00 | 71 | 999.0 |
| 20260505021556 | 61 | 167 | 6.1 | 12.2 | 0.00 | 0.00 | 0.00 | 68 | 999.1 |
| 20260505020057 | 62 | 360 | 7.0 | 13.9 | 0.00 | 0.00 | 0.00 | 65 | 999.1 |
| 20260505014558 | 63 | 360 | 8.7 | 18.2 | 0.00 | 0.00 | 0.00 | 61 | 999.1 |
| 20260505013057 | 64 | 201 | 12.2 | 20.9 | 0.00 | 0.00 | 0.00 | 57 | 999.4 |
| 20260505011531 | 64 | 178 | 7.0 | 12.2 | 0.00 | 0.00 | 0.00 | 55 | 998.8 |
| 20260505010030 | 65 | 360 | 7.0 | 13.0 | 0.00 | 0.00 | 0.00 | 53 | 998.9 |
| 20260505004520 | 65 | 165 | 6.1 | 9.6 | 0.00 | 0.00 | 0.00 | 50 | 998.9 |
| 20260505003020 | 66 | 180 | 4.3 | 8.7 | 0.00 | 0.00 | 0.00 | 47 | 999.0 |
| 20260505001518 | 67 | 190 | 6.1 | 9.6 | 0.00 | 0.00 | 0.00 | 45 | 999.0 |
| 20260505000032 | 68 | 200 | 5.2 | 9.6 | 0.00 | 0.00 | 0.00 | 42 | 999.0 |
| 20260504234511 | 69 | 170 | 8.7 | 13.9 | 0.00 | 0.00 | 0.00 | 41 | 999.2 |
| 20260504233011 | 69 | 360 | 7.8 | 18.2 | 0.00 | 0.00 | 0.00 | 39 | 999.4 |
| 20260504231511 | 70 | 360 | 8.7 | 18.2 | 0.00 | 0.00 | 0.00 | 38 | 999.6 |
| 20260504230012 | 71 | 193 | 10.4 | 18.2 | 0.00 | 0.00 | 0.00 | 36 | 999.7 |
| 20260504224507 | 71 | 360 | 9.6 | 22.6 | 0.00 | 0.00 | 0.00 | 35 | 999.8 |
| 20260504223006 | 72 | 202 | 13.0 | 25.2 | 0.00 | 0.00 | 0.00 | 36 | 999.9 |
| 20260504221548 | 72 | 360 | 12.2 | 25.2 | 0.00 | 0.00 | 0.00 | 38 | 999.8 |
| 20260504220035 | 72 | 186 | 13.0 | 21.7 | 0.00 | 0.00 | 0.00 | 41 | 999.9 |
| 20260504214530 | 72 | 360 | 9.6 | 20.9 | 0.00 | 0.00 | 0.00 | 41 | 999.9 |
| 20260504213033 | 72 | 196 | 12.2 | 21.7 | 0.00 | 0.00 | 0.00 | 41 | 999.9 |
| 20260504211532 | 72 | 191 | 13.0 | 24.3 | 0.00 | 0.00 | 0.00 | 42 | 999.7 |
| 20260504210025 | 72 | 360 | 13.0 | 20.0 | 0.00 | 0.00 | 0.00 | 42 | 999.7 |
| 20260504204525 | 72 | 186 | 11.3 | 22.6 | 0.00 | 0.00 | 0.00 | 43 | 999.6 |
| 20260504203020 | 72 | 360 | 11.3 | 22.6 | 0.00 | 0.00 | 0.00 | 45 | 999.8 |
| 20260504201518 | 72 | 198 | 11.3 | 22.6 | 0.00 | 0.00 | 0.00 | 45 | 1000.0 |